Location: Asheville, NC
(35.6000°N, 82.5500°W)
Time: 20:27:45
(UTC-04:00)

Vanguard 3 - Pass Details

Date: 15 March 2018
Orbit: 508 x 3264 km, 33.3° (Epoch: 20 June)

Event Time Altitude Azimuth Distance (km) Brightness Sun altitude
Rises 09:26:16 0° 243° (WSW) 7,082 11.5 20.2°
Reaches altitude 10° 09:30:55 10° 241° (WSW) 6,164 11.3 21.1°
Maximum altitude 09:50:51 71° 163° (SSE) 3,072 10.7 24.9°
Drops below altitude 10° 10:05:28 10° 83° (E) 4,711 12.1 27.6°
Sets 10:08:29 0° 81° (E) 5,408 12.2 28.2°
